Clearfield, PA

10:01 PM EDT on July 25, 2017 (GMT -0400)
Clearfield-Lawrence

Weather History for KFIG - March, 2014

Change the Weather History Date:

Sunday, March 23, 2014

  Actual Average (KDUJ) Record (KDUJ)
Temperature  
Mean Temperature 26 °F -  
Max Temperature 35 °F 45 °F 78 °F (2012)
Min Temperature 18 °F 27 °F 11 °F (1983)
Degree Days  
Heating Degree Days 39    
Moisture  
Dew Point 14 °F    
Average Humidity 57    
Maximum Humidity 78    
Minimum Humidity 31    
Precipitation  
Precipitation 0.00 in - - ()
Sea Level Pressure  
Sea Level Pressure 30.12 in    
Wind  
Wind Speed 9 mph (NW)    
Max Wind Speed 17 mph    
Max Gust Speed 26 mph    
Visibility 10 miles    
Events      
Averages and records for this station are not official NWS values.
T = Trace of Precipitation, MM = Missing Value Source: NWS Daily Summary

Daily Weather History Graph

Daily Weather History Graph

Search for Another Location

Airport or City:

Trip Planner

Search our weather history database for the weather conditions in past years. The results will help you decide how hot, cold, wet, or windy it might be!

Date:

Astronomy

Mar. 23, 2014 Rise Set
Actual Time 7:11 AM EDT 7:28 PM EDT
Civil Twilight 6:44 AM EDT 7:56 PM EDT
Nautical Twilight 6:12 AM EDT 8:28 PM EDT
Astronomical Twilight 5:39 AM EDT 9:01 PM EDT
Moon 1:46 AM EDT (3/23) 11:48 AM EDT (3/23)
Length of Visible Light 13h 11m
Length of Day
12h 17m
Waning Gibbous, 55% of the Moon is Illuminated
Mar 23
Waning Gibbous
Mar 23
Last Quarter
Mar 30
New
Apr 7
First Quarter
Apr 15
Full

Hourly Weather History & Observations

Time (EDT) Temp. Windchill Dew Point Humidity Pressure Visibility Wind Dir Wind Speed Gust Speed Precip Events Conditions
12:54 AM 34.0 °F 27.2 °F 19.9 °F 56% 30.07 in 10.0 mi WNW 8.1 mph - N/A   Overcast
1:54 AM 33.1 °F 27.7 °F 21.9 °F 64% 30.08 in 10.0 mi West 5.8 mph - N/A   Mostly Cloudy
2:54 AM 30.9 °F 25.2 °F 23.0 °F 72% 30.07 in 10.0 mi West 5.8 mph - N/A   Clear
3:54 AM 30.9 °F 26.2 °F 23.0 °F 72% 30.07 in 10.0 mi WSW 4.6 mph - N/A   Mostly Cloudy
4:10 AM 30.9 °F 26.2 °F 23.0 °F 72% 30.03 in 10.0 mi WSW 4.6 mph - N/A   Mostly Cloudy
4:36 AM 30.9 °F 26.2 °F 24.1 °F 76% 30.03 in 10.0 mi Variable 4.6 mph - N/A   Overcast
4:54 AM 30.9 °F 26.2 °F 24.1 °F 76% 30.07 in 10.0 mi West 4.6 mph - N/A   Overcast
5:42 AM 32.0 °F 26.4 °F 24.1 °F 73% 30.03 in 10.0 mi WNW 5.8 mph - N/A   Overcast
5:54 AM 32.0 °F 26.4 °F 24.1 °F 73% 30.07 in 10.0 mi WNW 5.8 mph - N/A   Overcast
6:54 AM 28.9 °F 18.2 °F 23.0 °F 78% 30.10 in 10.0 mi NNW 13.8 mph - N/A   Overcast
7:54 AM 28.0 °F 20.0 °F 19.0 °F 69% 30.13 in 10.0 mi NNW 8.1 mph - N/A   Mostly Cloudy
8:21 AM 28.0 °F 18.1 °F 19.0 °F 69% 30.08 in 10.0 mi NNW 11.5 mph - N/A   Mostly Cloudy
8:33 AM 28.0 °F 18.1 °F 18.0 °F 66% 30.08 in 10.0 mi North 11.5 mph - N/A   Mostly Cloudy
8:54 AM 28.0 °F 17.0 °F 17.1 °F 63% 30.14 in 10.0 mi NNW 13.8 mph - N/A   Mostly Cloudy
9:10 AM 27.0 °F 15.2 °F 16.0 °F 63% 30.09 in 10.0 mi NW 15.0 mph 19.6 mph N/A   Scattered Clouds
9:54 AM 28.0 °F 16.5 °F 12.0 °F 51% 30.15 in 10.0 mi WNW 15.0 mph - N/A   Clear
10:54 AM 28.0 °F 18.6 °F 12.9 °F 53% 30.15 in 10.0 mi NNW 10.4 mph - N/A   Partly Cloudy
11:54 AM 30.9 °F 20.7 °F 12.0 °F 46% 30.15 in 10.0 mi NNW 13.8 mph 19.6 mph N/A   Clear
12:54 PM 30.9 °F 21.2 °F 10.9 °F 43% 30.12 in 10.0 mi North 12.7 mph 23.0 mph N/A   Scattered Clouds
1:54 PM 33.1 °F 23.4 °F 7.0 °F 34% 30.11 in 10.0 mi NW 13.8 mph 21.9 mph N/A   Partly Cloudy
2:54 PM 34.0 °F 24.2 °F 7.0 °F 32% 30.09 in 10.0 mi NW 15.0 mph 20.7 mph N/A   Scattered Clouds
3:54 PM 33.1 °F 22.6 °F 5.0 °F 31% 30.09 in 10.0 mi NNW 16.1 mph - N/A   Partly Cloudy
4:54 PM 32.0 °F 21.6 °F 5.0 °F 32% 30.09 in 10.0 mi NNW 15.0 mph 24.2 mph N/A   Scattered Clouds
5:54 PM 30.0 °F 20.0 °F 6.1 °F 36% 30.11 in 10.0 mi NW 12.7 mph - N/A   Partly Cloudy
6:54 PM 27.0 °F 15.6 °F 6.1 °F 41% 30.15 in 10.0 mi NNW 13.8 mph 19.6 mph N/A   Clear
7:54 PM 23.0 °F 9.6 °F 7.0 °F 50% 30.18 in 10.0 mi NNW 16.1 mph 26.5 mph N/A   Clear
8:54 PM 19.9 °F 7.3 °F 6.1 °F 55% 30.22 in 10.0 mi NNW 12.7 mph 20.7 mph N/A   Clear
9:54 PM 19.0 °F 6.1 °F 5.0 °F 54% 30.25 in 10.0 mi NW 12.7 mph - N/A   Mostly Cloudy
10:54 PM 18.0 °F 2.6 °F 3.9 °F 54% 30.27 in 10.0 mi NW 17.3 mph 24.2 mph 0.00 in   Overcast
11:54 PM 18.0 °F 7.7 °F 5.0 °F 57% 30.27 in 10.0 mi NW 8.1 mph - N/A   Overcast